Previsão horária em Kabanbay

Hoje, 14 Junho, Segunda-feira

Tempo Temperatura Precipitação Vento Pressão Humidade
00:00 +10°C° 0 mm 2 m/s 705 mmHg 51%
01:00 +9°C° 0 mm 2 m/s 705 mmHg 50%
02:00 +9°C° 0 mm 2 m/s 705 mmHg 50%
03:00 +9°C° 0 mm 2 m/s 705 mmHg 50%
04:00 +10°C° 0 mm 2 m/s 705 mmHg 50%
05:00 +10°C° 0 mm 2 m/s 705 mmHg 50%
06:00 +14°C° 0 mm 2 m/s 705 mmHg 46%
07:00 +16°C° 0 mm 2 m/s 706 mmHg 42%
08:00 +18°C° 0 mm 2 m/s 706 mmHg 39%
09:00 +19°C° 0 mm 2 m/s 706 mmHg 36%
10:00 +20°C° 0 mm 3 m/s 705 mmHg 34%
11:00 +21°C° 0 mm 3 m/s 705 mmHg 32%
12:00 +22°C° 0 mm 3 m/s 705 mmHg 31%
13:00 +22°C° 0 mm 3 m/s 705 mmHg 30%
14:00 +24°C° 0 mm 3 m/s 704 mmHg 29%
15:00 +22°C° 0 mm 3 m/s 704 mmHg 32%
16:00 +22°C° 0 mm 4 m/s 704 mmHg 34%
17:00 +22°C° 0 mm 4 m/s 704 mmHg 36%
18:00 +19°C° 0 mm 3 m/s 704 mmHg 44%
19:00 +17°C° 0 mm 2 m/s 704 mmHg 52%
20:00 +15°C° 0 mm 1 m/s 704 mmHg 60%
21:00 +14°C° 0 mm 2 m/s 704 mmHg 60%
22:00 +13°C° 0 mm 2 m/s 704 mmHg 61%
23:00 +13°C° 0 mm 2 m/s 703 mmHg 61%

Amanhã, 15 Junho, Terça-feira

Tempo Temperatura Precipitação Vento Pressão Humidade
00:00 +13°C° 0 mm 2 m/s 703 mmHg 60%
01:00 +12°C° 0 mm 2 m/s 703 mmHg 58%
02:00 +12°C° 0 mm 2 m/s 702 mmHg 57%
03:00 +12°C° 0 mm 2 m/s 703 mmHg 56%
04:00 +13°C° 0 mm 2 m/s 703 mmHg 54%
05:00 +14°C° 0 mm 2 m/s 703 mmHg 53%
06:00 +16°C° 0 mm 2 m/s 703 mmHg 49%
07:00 +19°C° 0 mm 1 m/s 703 mmHg 45%
08:00 +22°C° 0 mm 1 m/s 703 mmHg 41%
09:00 +23°C° 0 mm 1 m/s 703 mmHg 38%
10:00 +24°C° 0 mm 2 m/s 703 mmHg 35%
11:00 +26°C° 0 mm 2 m/s 703 mmHg 32%
12:00 +26°C° 0 mm 2 m/s 703 mmHg 31%
13:00 +27°C° 0 mm 2 m/s 702 mmHg 30%
14:00 +28°C° 0 mm 3 m/s 702 mmHg 29%
15:00 +27°C° 0 mm 3 m/s 702 mmHg 30%
16:00 +27°C° 0 mm 3 m/s 702 mmHg 31%
17:00 +27°C° 0 mm 3 m/s 702 mmHg 32%
18:00 +24°C° 0 mm 3 m/s 701 mmHg 41%
19:00 +20°C° 0 mm 3 m/s 701 mmHg 50%
20:00 +18°C° 0 mm 2 m/s 701 mmHg 59%
21:00 +17°C° 0 mm 2 m/s 701 mmHg 59%
22:00 +16°C° 0 mm 3 m/s 701 mmHg 58%
23:00 +16°C° 0 mm 3 m/s 700 mmHg 58%

Depois de amanhã, 16 Junho, Quarta-feira

Tempo Temperatura Precipitação Vento Pressão Humidade
00:00 +16°C° 0 mm 2 m/s 700 mmHg 56%
01:00 +15°C° 0 mm 2 m/s 700 mmHg 54%
02:00 +15°C° 0 mm 2 m/s 700 mmHg 52%
03:00 +16°C° 0 mm 2 m/s 700 mmHg 51%
04:00 +16°C° 0 mm 2 m/s 700 mmHg 50%
05:00 +16°C° 0 mm 2 m/s 700 mmHg 49%
06:00 +19°C° 0 mm 2 m/s 701 mmHg 44%
07:00 +23°C° 0 mm 1 m/s 701 mmHg 39%
08:00 +26°C° 0 mm 1 m/s 701 mmHg 34%
09:00 +27°C° 0 mm 2 m/s 701 mmHg 31%
10:00 +28°C° 0 mm 2 m/s 701 mmHg 29%
11:00 +30°C° 0 mm 2 m/s 701 mmHg 27%
12:00 +30°C° 0 mm 2 m/s 701 mmHg 25%
13:00 +31°C° 0 mm 3 m/s 701 mmHg 23%
14:00 +31°C° 0 mm 3 m/s 701 mmHg 21%
15:00 +31°C° 0 mm 3 m/s 700 mmHg 24%
16:00 +30°C° 0 mm 2 m/s 700 mmHg 27%
17:00 +30°C° 0 mm 2 m/s 700 mmHg 30%
18:00 +27°C° 0 mm 2 m/s 700 mmHg 34%
19:00 +25°C° 0 mm 2 m/s 700 mmHg 39%
20:00 +23°C° 0 mm 2 m/s 700 mmHg 43%
21:00 +21°C° 0 mm 2 m/s 700 mmHg 43%
22:00 +20°C° 0 mm 2 m/s 700 mmHg 43%
23:00 +19°C° 0 mm 2 m/s 700 mmHg 42%

17 Junho, Quinta-feira

Tempo Temperatura Precipitação Vento Pressão Humidade
00:00 +19°C° 0 mm 2 m/s 699 mmHg 40%
01:00 +19°C° 0 mm 2 m/s 699 mmHg 38%
02:00 +19°C° 0 mm 2 m/s 699 mmHg 35%
03:00 +19°C° 0 mm 2 m/s 699 mmHg 35%
04:00 +19°C° 0 mm 2 m/s 699 mmHg 34%
05:00 +19°C° 0 mm 2 m/s 700 mmHg 33%
06:00 +23°C° 0 mm 1 m/s 700 mmHg 31%
07:00 +25°C° 0 mm 1 m/s 700 mmHg 28%
08:00 +26°C° 0 mm 0 m/s 700 mmHg 26%
09:00 +29°C° 0 mm 1 m/s 700 mmHg 25%
10:00 +30°C° 0 mm 2 m/s 700 mmHg 24%
11:00 +32°C° 0 mm 2 m/s 700 mmHg 23%
12:00 +33°C° 0 mm 3 m/s 700 mmHg 22%
13:00 +33°C° 0 mm 3 m/s 699 mmHg 21%
14:00 +34°C° 0 mm 3 m/s 699 mmHg 20%
15:00 +33°C° 0 mm 3 m/s 699 mmHg 22%
16:00 +31°C° 0 mm 2 m/s 699 mmHg 24%
17:00 +31°C° 0 mm 1 m/s 699 mmHg 26%
18:00 +28°C° 0 mm 2 m/s 699 mmHg 32%
19:00 +26°C° 0 mm 2 m/s 699 mmHg 39%
20:00 +23°C° 0 mm 2 m/s 699 mmHg 45%
21:00 +23°C° 0 mm 2 m/s 699 mmHg 46%
22:00 +21°C° 0 mm 2 m/s 698 mmHg 46%
23:00 +21°C° 0 mm 2 m/s 698 mmHg 47%

18 Junho, Sexta-feira

Tempo Temperatura Precipitação Vento Pressão Humidade
00:00 +21°C° 0 mm 2 m/s 698 mmHg 45%
01:00 +21°C° 0 mm 3 m/s 698 mmHg 43%
02:00 +21°C° 0 mm 3 m/s 698 mmHg 42%
03:00 +21°C° 0 mm 3 m/s 698 mmHg 41%
04:00 +21°C° 0 mm 2 m/s 698 mmHg 41%
05:00 +21°C° 0 mm 2 m/s 698 mmHg 40%
06:00 +25°C° 0 mm 2 m/s 698 mmHg 36%
07:00 +27°C° 0 mm 2 m/s 698 mmHg 32%
08:00 +30°C° 0 mm 2 m/s 698 mmHg 28%
09:00 +30°C° 0 mm 3 m/s 698 mmHg 26%
10:00 +32°C° 0 mm 4 m/s 698 mmHg 24%
11:00 +33°C° 0 mm 5 m/s 698 mmHg 21%
12:00 +33°C° 0 mm 4 m/s 698 mmHg 22%
13:00 +33°C° 0 mm 3 m/s 698 mmHg 22%
14:00 +32°C° 0 mm 2 m/s 698 mmHg 22%
15:00 +30°C° 0 mm 3 m/s 698 mmHg 28%
16:00 +28°C° 0 mm 4 m/s 698 mmHg 34%
17:00 +27°C° 0 mm 5 m/s 698 mmHg 39%
18:00 +25°C° 0 mm 5 m/s 698 mmHg 42%
19:00 +23°C° 0 mm 4 m/s 698 mmHg 45%
20:00 +21°C° 0 mm 4 m/s 697 mmHg 49%
21:00 +21°C° 0 mm 3 m/s 698 mmHg 48%
22:00 +20°C° 0 mm 3 m/s 698 mmHg 48%
23:00 +20°C° 0 mm 3 m/s 698 mmHg 48%

19 Junho, Sábado

Tempo Temperatura Precipitação Vento Pressão Humidade
00:00 +19°C° 0 mm 3 m/s 698 mmHg 48%
01:00 +19°C° 0 mm 3 m/s 698 mmHg 49%
02:00 +19°C° 0 mm 3 m/s 698 mmHg 49%
03:00 +20°C° 0 mm 3 m/s 698 mmHg 50%
04:00 +20°C° 0 mm 3 m/s 698 mmHg 50%
05:00 +21°C° 0 mm 2 m/s 698 mmHg 51%
06:00 +24°C° 0 mm 2 m/s 698 mmHg 44%
07:00 +26°C° 0 mm 2 m/s 698 mmHg 38%
08:00 +28°C° 0 mm 2 m/s 698 mmHg 32%
09:00 +29°C° 0 mm 3 m/s 698 mmHg 31%
10:00 +29°C° 0 mm 4 m/s 698 mmHg 31%
11:00 +29°C° 0 mm 5 m/s 698 mmHg 30%
12:00 +30°C° 0 mm 4 m/s 697 mmHg 29%
13:00 +30°C° 0 mm 4 m/s 697 mmHg 28%
14:00 +32°C° 0 mm 4 m/s 696 mmHg 27%
15:00 +29°C° 0.1 mm 5 m/s 696 mmHg 35%
16:00 +27°C° 0.1 mm 6 m/s 696 mmHg 43%
17:00 +24°C° 0.1 mm 7 m/s 696 mmHg 50%
18:00 +22°C° 0.1 mm 6 m/s 696 mmHg 56%
19:00 +20°C° 0.1 mm 5 m/s 696 mmHg 62%
20:00 +18°C° 0.1 mm 4 m/s 696 mmHg 69%
21:00 +18°C° 0.2 mm 4 m/s 696 mmHg 67%
22:00 +18°C° 0.2 mm 4 m/s 696 mmHg 66%
23:00 +18°C° 0.2 mm 4 m/s 695 mmHg 64%
Mostrar mais

Necessitamos do seu Consentimento

A Meteoprog e os seus Fornecedores de Serviços podem armazenar e aceder a dados pessoais como cookies, identificadores do dispositivo ou outras tecnologias semelhantes existentes no seu dispositivo e processar estes dados para personalizar conteúdos e anúncios, assim como funcionalidades nas redes sociais e análise de tráfego.

  • Armazenar e/ou aceder a informações no seu dispositivo

    Os cookies, identificadores do dispositivo ou outras informações podem ser armazenados ou acedidos no seu dispositivo, para os fins acima indicados.

  • Anúncios e conteúdos personalizados, medição de anúncios e conteúdos, dados sobre o público-alvo e desenvolvimento de produtos

    Os anúncios e os conteúdos podem ser personalizados com base num perfil. Podem ser adicionados dados adicionais para uma maior personalização dos anúncios e dos conteúdos. A eficácia dos anúncios e dos conteúdos pode ser medida. Podem ser obtidas informações sobre o público que visualizou os anúncios e os conteúdos. Estes dados podem ser usados para desenvolver ou melhorar sistemas, softwares ou a experiência do utilizador.

Ao clicar em "Eu concordo”, permitirá o uso de cookies, identificadores do dispositivo e web beacons mencionados ou outras tecnologias semelhantes. As configurações do navegador do seu dispositivo podem ser alteradas.

Para certos fins, podem ser invocados interesses legítimos ao invés de consentimento. Pode ler mais informação sobre este assunto na nossa Política de Privacidade e Cookies.